#�ϑ�����,���ϕ���,���ϕ���,�ő啗��,�ő啗����������,�ő�u�ԕ���,�ő�u�ԕ�����������
#(�N����),(m/s)   ,(16����),(m/s)   ,(16����)        ,(m/s)       ,(16����)            
2018/3/9 0:01,7.6,16,7.7,16,15.3,1
2018/3/9 0:02,7.8,16,7.9,16,17.7,15
2018/3/9 0:03,8,16,8,16,15.9,16
2018/3/9 0:04,8.1,16,8.1,16,16.5,16
2018/3/9 0:05,8.3,16,8.3,16,13.4,16
2018/3/9 0:06,8.3,16,8.4,16,11.8,15
2018/3/9 0:07,8,16,8.3,16,11.9,15
2018/3/9 0:08,7.5,16,8,16,11.8,15
2018/3/9 0:09,7.5,16,7.7,16,14.7,15
2018/3/9 0:10,7.3,16,7.6,16,14.3,16
2018/3/9 0:11,7.3,16,7.3,16,10.6,15
2018/3/9 0:12,6.9,16,7.2,16,11.7,16
2018/3/9 0:13,6.7,16,6.8,16,10.6,15
2018/3/9 0:14,6.6,16,6.7,16,12.1,15
2018/3/9 0:15,6.3,16,6.6,16,9,16
2018/3/9 0:16,6.3,15,6.3,16,11,14
2018/3/9 0:17,6.3,15,6.3,16,13.5,15
2018/3/9 0:18,6.1,16,6.4,16,10.3,15
2018/3/9 0:19,5.9,16,6.1,16,9.9,15
2018/3/9 0:20,6,16,6,16,11.4,15
2018/3/9 0:21,6,16,6,16,14,1
2018/3/9 0:22,6.5,16,6.5,16,16.3,15
2018/3/9 0:23,7.1,16,7.1,16,17.1,15
2018/3/9 0:24,7.6,16,7.6,16,20.2,16
2018/3/9 0:25,8.2,16,8.2,16,16.9,16
2018/3/9 0:26,8.5,16,8.5,16,18.3,15
2018/3/9 0:27,8.5,16,8.6,16,13.5,16
2018/3/9 0:28,8.5,16,8.5,16,10.5,15
2018/3/9 0:29,8.7,16,8.7,16,12.7,15
2018/3/9 0:30,9.1,16,9.1,16,19.2,15
2018/3/9 0:31,9.3,16,9.4,16,14.8,15
2018/3/9 0:32,9.4,16,9.5,16,20.5,15
2018/3/9 0:33,9.3,16,9.5,16,20.6,15
2018/3/9 0:34,9,15,9.3,16,13,14
2018/3/9 0:35,8.9,15,9,16,16.2,15
2018/3/9 0:36,8.9,15,8.9,16,18,14
2018/3/9 0:37,8.7,15,9,16,18.3,15
2018/3/9 0:38,8.8,15,8.8,16,10,16
2018/3/9 0:39,8.8,15,8.9,16,12.2,16
2018/3/9 0:40,8.5,15,8.8,16,15.1,16
2018/3/9 0:41,8.4,15,8.7,16,21.3,16
2018/3/9 0:42,7.9,15,8.4,16,12.8,1
2018/3/9 0:43,7.8,15,7.9,16,19.4,15
2018/3/9 0:44,7.9,15,8,15,14.4,16
2018/3/9 0:45,7.8,15,7.9,15,14.1,1
2018/3/9 0:46,7.6,16,7.9,15,13.1,16
2018/3/9 0:47,7.9,16,7.9,15,15.1,14
2018/3/9 0:48,8.1,16,8.1,15,10,16
2018/3/9 0:49,8.1,16,8.1,15,15.8,16
2018/3/9 0:50,8.5,16,8.5,15,19.6,14
2018/3/9 0:51,8.4,16,8.5,16,11.9,15
2018/3/9 0:52,8.3,16,8.5,16,15.7,16
2018/3/9 0:53,7.8,16,8.3,16,10.2,15
2018/3/9 0:54,7.5,16,7.7,16,12.2,15
2018/3/9 0:55,7.3,16,7.5,16,13.9,16
2018/3/9 0:56,7.1,16,7.3,16,11.3,15
2018/3/9 0:57,6.9,16,7.2,16,13.8,15
2018/3/9 0:58,6.9,16,6.9,16,12.4,15
2018/3/9 0:59,6.8,16,7,16,15.3,15
2018/3/9 1:00,6.5,16,6.8,16,12.6,16
2018/3/9 1:01,6.7,16,6.7,16,17.4,16
2018/3/9 1:02,7.1,16,7.1,16,19.2,1
2018/3/9 1:03,7.2,16,7.2,16,13.3,1
2018/3/9 1:04,7.2,16,7.2,16,10,16
2018/3/9 1:05,7.1,16,7.2,16,11,1
2018/3/9 1:06,7,16,7.1,16,8.6,15
2018/3/9 1:07,6.8,16,7,16,10.7,1
2018/3/9 1:08,6.6,16,6.9,16,11,16
2018/3/9 1:09,6.3,16,6.5,16,7.6,15
2018/3/9 1:10,5.8,16,6.3,16,5.5,16
2018/3/9 1:11,5.5,16,5.8,16,10.9,15
2018/3/9 1:12,5,16,5.4,16,9.7,15
2018/3/9 1:13,4.8,16,5,16,8.6,15
2018/3/9 1:14,4.7,16,4.8,16,12.8,15
2018/3/9 1:15,4.6,16,4.7,16,10.1,16
2018/3/9 1:16,4.5,16,4.6,16,7.9,15
2018/3/9 1:17,4.5,16,4.5,16,7,14
2018/3/9 1:18,4.4,16,4.6,16,10.6,15
2018/3/9 1:19,4.3,16,4.4,16,5.4,16
2018/3/9 1:20,4.5,16,4.5,16,9.1,1
2018/3/9 1:21,4.3,16,4.5,16,12.3,2
2018/3/9 1:22,4.1,16,4.2,16,6,16
2018/3/9 1:23,3.9,16,4.1,16,5,16
2018/3/9 1:24,3.6,16,3.9,16,5.1,16
2018/3/9 1:25,3.3,16,3.6,16,5.8,2
2018/3/9 1:26,3.2,16,3.3,16,7.1,16
2018/3/9 1:27,3.4,16,3.5,16,11.3,15
2018/3/9 1:28,3.2,16,3.4,16,6.7,15
2018/3/9 1:29,3.4,16,3.4,16,7,3
2018/3/9 1:30,3.3,16,3.4,16,7.2,14
2018/3/9 1:31,3.5,16,3.5,16,9.5,14
2018/3/9 1:32,3.5,16,3.5,16,6.3,14
2018/3/9 1:33,3.9,16,3.9,16,7.8,16
2018/3/9 1:34,4.2,16,4.2,16,11.3,1
2018/3/9 1:35,4.7,15,4.7,16,14.3,16
2018/3/9 1:36,4.8,16,4.8,16,5.7,2
2018/3/9 1:37,4.8,16,4.8,16,9.9,15
2018/3/9 1:38,5.1,15,5.1,15,13.1,14
2018/3/9 1:39,5.3,15,5.3,15,11.3,14
2018/3/9 1:40,5.7,15,5.7,15,13.5,15
2018/3/9 1:41,5.6,15,5.6,15,9.2,16
2018/3/9 1:42,6,15,6,15,11.9,15
2018/3/9 1:43,6.1,15,6.1,15,15.3,16
2018/3/9 1:44,6.4,15,6.4,15,12.8,14
2018/3/9 1:45,5.9,16,6.3,15,6,1
2018/3/9 1:46,5.8,16,5.9,15,4.1,13
2018/3/9 1:47,5.5,16,5.8,15,6.1,16
2018/3/9 1:48,5,16,5.5,15,4.5,2
2018/3/9 1:49,4.6,16,4.9,15,4.3,1
2018/3/9 1:50,4.2,16,4.5,15,6,16
2018/3/9 1:51,4.1,16,4.2,15,6.9,1
2018/3/9 1:52,3.7,16,4.1,15,6.3,16
2018/3/9 1:53,3.2,16,3.7,15,4.3,14
2018/3/9 1:54,2.6,16,3.1,15,4.5,1
2018/3/9 1:55,2.7,16,2.7,16,7.6,15
2018/3/9 1:56,2.9,16,2.9,16,7.1,16
2018/3/9 1:57,2.9,16,2.9,16,6.7,16
2018/3/9 1:58,3.2,16,3.2,16,8.5,15
2018/3/9 1:59,3.7,16,3.7,16,10.8,14
2018/3/9 2:00,3.8,16,3.8,16,8.1,16
2018/3/9 2:01,3.8,16,3.8,16,8.5,16
2018/3/9 2:02,3.9,16,3.9,15,8.3,14
2018/3/9 2:03,4.2,16,4.2,16,9.3,14
2018/3/9 2:04,4.5,16,4.5,16,8.6,16
2018/3/9 2:05,4.7,16,4.7,16,10.9,16
2018/3/9 2:06,4.8,16,4.9,16,12.2,16
2018/3/9 2:07,4.9,16,4.9,16,7.7,16
2018/3/9 2:08,4.9,16,5,16,9,2
2018/3/9 2:09,4.8,16,5,16,11.3,16
2018/3/9 2:10,4.9,16,4.9,16,9.7,15
2018/3/9 2:11,5.3,16,5.3,16,18.3,16
2018/3/9 2:12,5.5,16,5.5,16,13.4,16
2018/3/9 2:13,5.7,16,5.7,16,14.3,16
2018/3/9 2:14,6,16,6,16,14.7,16
2018/3/9 2:15,6,16,6,16,8.7,15
2018/3/9 2:16,5.9,16,5.9,16,7.1,1
2018/3/9 2:17,6.1,16,6.1,16,12.5,16
2018/3/9 2:18,6.4,16,6.4,16,11.9,1
2018/3/9 2:19,6.5,16,6.5,16,14.2,16
2018/3/9 2:20,6.4,16,6.5,16,8.3,1
2018/3/9 2:21,6.6,16,6.6,16,15.1,16
2018/3/9 2:22,6.9,16,6.9,16,14.1,1
2018/3/9 2:23,6.8,16,7,16,13.5,1
2018/3/9 2:24,6.3,16,6.8,16,9.4,16
2018/3/9 2:25,6.5,16,6.5,16,16.2,16
2018/3/9 2:26,6.9,16,6.9,16,14.8,15
2018/3/9 2:27,6.9,16,7.1,16,13.2,16
2018/3/9 2:28,6.8,16,6.9,16,11,15
2018/3/9 2:29,6.7,16,6.7,16,15.8,1
2018/3/9 2:30,6.7,16,6.7,16,11.6,2
2018/3/9 2:31,6.3,16,6.7,16,8.3,16
2018/3/9 2:32,5.8,16,6.2,16,7.5,16
2018/3/9 2:33,5.4,16,5.8,16,7.8,1
2018/3/9 2:34,5.8,16,5.8,16,11.6,15
2018/3/9 2:35,5.7,16,5.9,16,11.7,13
2018/3/9 2:36,5.2,16,5.7,16,5.8,3
2018/3/9 2:37,5.3,16,5.3,16,13.1,1
2018/3/9 2:38,5.2,16,5.3,16,9.3,1
2018/3/9 2:39,5.2,16,5.3,16,9.9,1
2018/3/9 2:40,5.4,16,5.4,16,12.5,1
2018/3/9 2:41,5.5,16,5.5,16,14,1
2018/3/9 2:42,5.8,16,5.8,16,11.5,1
2018/3/9 2:43,5.7,16,5.8,16,9.9,1
2018/3/9 2:44,5.4,16,5.7,16,11.4,2
2018/3/9 2:45,5.2,16,5.4,16,9.7,1
2018/3/9 2:46,5.6,16,5.6,16,12.5,16
2018/3/9 2:47,5.6,16,5.7,16,13,16
2018/3/9 2:48,5.6,16,5.7,16,7.8,16
2018/3/9 2:49,5.6,16,5.6,16,14.3,16
2018/3/9 2:50,5.4,16,5.7,16,11.3,16
2018/3/9 2:51,5.3,16,5.4,16,12.4,1
2018/3/9 2:52,5.2,16,5.3,16,12.4,1
2018/3/9 2:53,5.5,16,5.5,16,11.6,1
2018/3/9 2:54,5.7,16,5.8,16,11.3,1
2018/3/9 2:55,5.7,16,5.7,16,13.2,16
2018/3/9 2:56,5.6,16,5.8,16,14.2,1
2018/3/9 2:57,5.5,16,5.6,16,11.9,16
2018/3/9 2:58,5.8,16,5.8,16,12.6,15
2018/3/9 2:59,5.7,16,6,16,9,2
2018/3/9 3:00,5.7,16,5.7,16,14.9,1
2018/3/9 3:01,5.7,16,5.8,16,9.7,1
2018/3/9 3:02,5.6,16,5.8,16,8.2,16
2018/3/9 3:03,5.2,16,5.6,16,7.4,16
2018/3/9 3:04,5.3,16,5.3,16,9.9,1
2018/3/9 3:05,5.2,16,5.4,16,10.2,16
2018/3/9 3:06,5,16,5.2,16,7.5,2
2018/3/9 3:07,5.1,16,5.1,16,11.7,1
2018/3/9 3:08,4.7,16,5,16,9.9,15
2018/3/9 3:09,4.8,16,4.8,16,10.7,16
2018/3/9 3:10,4.5,16,4.9,16,10.2,1
2018/3/9 3:11,4.5,16,4.7,16,14.4,1
2018/3/9 3:12,4.5,16,4.5,16,7.5,16
2018/3/9 3:13,4.9,16,4.9,16,12.6,16
2018/3/9 3:14,5.1,1,5.1,16,17.6,2
2018/3/9 3:15,5.3,1,5.3,1,16.2,1
2018/3/9 3:16,5.5,16,5.5,1,12.2,16
2018/3/9 3:17,5.3,16,5.5,1,10.2,16
2018/3/9 3:18,5.2,16,5.3,1,6.7,1
2018/3/9 3:19,5,1,5.2,1,9.4,15
2018/3/9 3:20,5.5,1,5.5,1,14.2,16
2018/3/9 3:21,5.6,1,5.6,1,12.6,16
2018/3/9 3:22,5.6,1,5.6,1,9.8,15
2018/3/9 3:23,5.7,16,5.7,16,12.1,16
2018/3/9 3:24,5.2,16,5.7,16,11.7,1
2018/3/9 3:25,5.2,16,5.3,16,12.7,2
2018/3/9 3:26,5.1,16,5.3,16,9.8,16
2018/3/9 3:27,5.4,16,5.4,16,11.1,1
2018/3/9 3:28,5.6,1,5.7,16,10.9,2
2018/3/9 3:29,5.7,1,5.7,16,8.6,1
2018/3/9 3:30,5.7,16,6,1,17.2,1
2018/3/9 3:31,6,16,6.1,1,16,1
2018/3/9 3:32,6.5,1,6.6,16,19.7,1
2018/3/9 3:33,6.2,16,6.5,16,10.5,14
2018/3/9 3:34,6.6,16,6.6,16,15.4,16
2018/3/9 3:35,7,16,7,16,21.1,1
2018/3/9 3:36,7.2,16,7.3,16,19.5,1
2018/3/9 3:37,7.3,1,7.3,16,14.3,1
2018/3/9 3:38,7.6,16,7.6,16,18.5,16
2018/3/9 3:39,7.7,16,7.7,16,11,1
2018/3/9 3:40,7.5,1,7.7,16,12.4,16
2018/3/9 3:41,7.4,1,7.5,16,13,16
2018/3/9 3:42,6.9,16,7.4,16,10.5,15
2018/3/9 3:43,7,16,7,16,7.5,15
2018/3/9 3:44,6.5,1,7,16,8.3,3
2018/3/9 3:45,6.1,1,6.4,16,12.6,16
2018/3/9 3:46,5.9,1,6,16,9.5,15
2018/3/9 3:47,5.5,1,5.8,16,11,1
2018/3/9 3:48,5,1,5.3,16,8.2,1
2018/3/9 3:49,4.8,1,4.9,16,8.7,16
2018/3/9 3:50,4.7,16,4.9,1,11.7,15
2018/3/9 3:51,4.3,1,4.6,16,7.4,1
2018/3/9 3:52,4.5,16,4.5,16,10.9,16
2018/3/9 3:53,4.7,16,4.7,16,10.3,1
2018/3/9 3:54,5,16,5,1,11.7,15
2018/3/9 3:55,4.7,16,5,1,6.5,1
2018/3/9 3:56,4.6,16,4.7,1,9.9,15
2018/3/9 3:57,4.5,16,4.6,1,6,2
2018/3/9 3:58,4.8,16,4.8,16,10.6,14
2018/3/9 3:59,4.5,16,4.7,16,3.8,2
2018/3/9 4:00,4.3,16,4.4,16,9.2,15
2018/3/9 4:01,4.5,16,4.5,16,10.3,16
2018/3/9 4:02,4.4,16,4.5,16,8.9,2
2018/3/9 4:03,4.4,16,4.4,16,10.1,2
2018/3/9 4:04,4.1,16,4.5,16,11.3,1
2018/3/9 4:05,4.4,16,4.4,16,13.5,1
2018/3/9 4:06,4.8,16,4.8,16,14.2,1
2018/3/9 4:07,4.8,16,4.8,16,10.5,1
2018/3/9 4:08,5,16,5,16,13,15
2018/3/9 4:09,5.4,16,5.5,16,10.9,16
2018/3/9 4:10,5.7,16,5.7,16,11.7,1
2018/3/9 4:11,5.7,16,5.7,16,14,2
2018/3/9 4:12,5.6,16,5.8,16,10.5,15
2018/3/9 4:13,5.6,16,5.7,16,10.6,16
2018/3/9 4:14,5.6,16,5.6,16,6.2,16
2018/3/9 4:15,5.4,16,5.6,16,6.1,16
2018/3/9 4:16,5.1,16,5.4,16,9.4,1
2018/3/9 4:17,5.2,16,5.2,16,9.2,2
2018/3/9 4:18,4.7,16,5.1,16,7.6,16
2018/3/9 4:19,4.6,16,4.6,16,9.9,14
2018/3/9 4:20,4.7,16,4.7,16,14.2,16
2018/3/9 4:21,4.7,16,4.8,16,13.9,16
2018/3/9 4:22,4.9,16,4.9,16,13.5,15
2018/3/9 4:23,4.8,16,4.9,16,8.4,1
2018/3/9 4:24,5,16,5,16,12.6,15
2018/3/9 4:25,5.6,16,5.6,16,17.1,15
2018/3/9 4:26,5.7,16,5.7,16,10,15
2018/3/9 4:27,5.8,16,5.9,16,11.7,16
2018/3/9 4:28,5.8,16,5.8,16,6.4,15
2018/3/9 4:29,5.9,16,6,16,9.5,14
2018/3/9 4:30,6,16,6,16,22,16
2018/3/9 4:31,6.7,16,6.7,16,17.9,16
2018/3/9 4:32,6.9,16,6.9,16,14.8,15
2018/3/9 4:33,7.2,15,7.2,15,12.6,15
2018/3/9 4:34,7.3,15,7.3,15,15.6,16
2018/3/9 4:35,6.7,15,7.3,15,8.5,14
2018/3/9 4:36,6.3,15,6.6,15,5.4,16
2018/3/9 4:37,6.4,15,6.4,15,13.2,13
2018/3/9 4:38,6.9,15,6.9,15,12.1,16
2018/3/9 4:39,6.6,15,6.9,15,6.4,15
2018/3/9 4:40,6.2,15,6.6,15,7.7,2
2018/3/9 4:41,5.2,15,5.9,15,7.9,1
2018/3/9 4:42,4.9,15,5.2,15,11.6,14
2018/3/9 4:43,4.7,15,4.9,15,10.6,1
2018/3/9 4:44,4.4,15,4.7,15,8.6,13
2018/3/9 4:45,4.7,16,4.7,15,11.8,2
2018/3/9 4:46,4.9,16,4.9,15,11,2
2018/3/9 4:47,4.9,16,5,15,11.4,15
2018/3/9 4:48,4.6,16,4.8,15,10.9,15
2018/3/9 4:49,4.8,16,4.8,15,10.2,2
2018/3/9 4:50,4.8,16,4.9,15,8.4,15
2018/3/9 4:51,5.2,16,5.2,15,11.5,13
2018/3/9 4:52,5.2,16,5.2,16,9.8,14
2018/3/9 4:53,5.2,16,5.2,16,10.3,1
2018/3/9 4:54,5.1,16,5.1,16,6.4,2
2018/3/9 4:55,4.9,16,5,16,9,13
2018/3/9 4:56,4.9,16,5,16,13.4,15
2018/3/9 4:57,4.7,16,4.9,16,6.3,15
2018/3/9 4:58,4.7,16,4.7,16,8.5,16
2018/3/9 4:59,4.5,16,4.7,16,7.8,1
2018/3/9 5:00,4.4,16,4.5,16,7.2,16
2018/3/9 5:01,4,16,4.4,16,5.6,16
2018/3/9 5:02,4.1,16,4.1,16,12.2,14
2018/3/9 5:03,4.2,16,4.2,16,11.3,15
2018/3/9 5:04,4.4,16,4.4,16,12.4,13
2018/3/9 5:05,4.4,16,4.6,16,12.1,15
2018/3/9 5:06,4.4,16,4.4,16,7.5,1
2018/3/9 5:07,4.6,16,4.7,16,13.2,16
2018/3/9 5:08,4.5,16,4.6,16,8.3,16
2018/3/9 5:09,4.5,16,4.5,16,8.2,15
2018/3/9 5:10,4.6,16,4.6,16,6.4,4
2018/3/9 5:11,4.7,16,4.7,16,9.2,14
2018/3/9 5:12,4.7,16,4.8,16,10.8,15
2018/3/9 5:13,4.6,16,4.8,16,9.4,16
2018/3/9 5:14,4.7,16,4.8,16,14.2,15
2018/3/9 5:15,4.9,16,4.9,16,12.6,16
2018/3/9 5:16,5.1,16,5.1,16,11.1,15
2018/3/9 5:17,5,16,5.2,16,12.2,16
2018/3/9 5:18,5.2,16,5.2,16,7.4,16
2018/3/9 5:19,5.3,16,5.3,16,9.7,13
2018/3/9 5:20,5.5,16,5.5,16,11.6,16
2018/3/9 5:21,5.4,16,5.5,16,10,16
2018/3/9 5:22,5.6,16,5.6,16,16.3,15
2018/3/9 5:23,5.9,16,5.9,16,13.2,16
2018/3/9 5:24,5.8,16,5.9,16,9.9,14
2018/3/9 5:25,5.5,16,5.8,16,8.4,14
2018/3/9 5:26,5.4,16,5.5,16,11.5,16
2018/3/9 5:27,5.7,16,5.7,16,12.6,14
2018/3/9 5:28,5.8,16,5.9,16,11.1,14
2018/3/9 5:29,5.7,16,5.8,16,8.2,16
2018/3/9 5:30,5.7,16,5.7,16,14.9,15
2018/3/9 5:31,6.2,16,6.2,16,15.4,15
2018/3/9 5:32,6.3,16,6.4,16,15.6,15
2018/3/9 5:33,6.1,16,6.4,16,11.5,15
2018/3/9 5:34,6.3,16,6.4,16,13.2,16
2018/3/9 5:35,6.6,15,6.6,15,13.2,14
2018/3/9 5:36,6.9,15,6.9,15,16.8,16
2018/3/9 5:37,6.9,15,6.9,15,17,16
2018/3/9 5:38,7.3,15,7.3,15,15.7,14
2018/3/9 5:39,7.7,15,7.7,15,15.3,15
2018/3/9 5:40,8,15,8.1,15,15.2,14
2018/3/9 5:41,7.7,15,8,15,11.6,1
2018/3/9 5:42,7.3,16,7.7,15,10.2,16
2018/3/9 5:43,7.7,16,7.7,15,19.2,15
2018/3/9 5:44,7.8,16,7.9,15,15.4,16
2018/3/9 5:45,8.1,16,8.1,15,19,16
2018/3/9 5:46,8,16,8.2,16,15.8,16
2018/3/9 5:47,8.1,16,8.2,16,17.5,15
2018/3/9 5:48,8.1,16,8.3,16,19.9,15
2018/3/9 5:49,7.7,16,8.1,16,10,14
2018/3/9 5:50,7.7,16,7.8,16,16.9,16
2018/3/9 5:51,7.8,16,8,16,12.5,16
2018/3/9 5:52,8.2,15,8.2,16,17,16
2018/3/9 5:53,7.9,15,8.1,16,18.4,14
2018/3/9 5:54,8.2,15,8.2,16,18.8,16
2018/3/9 5:55,8.4,15,8.4,15,24.8,15
2018/3/9 5:56,8.5,15,8.5,15,19.9,1
2018/3/9 5:57,8.2,15,8.5,15,12.1,14
2018/3/9 5:58,8.1,15,8.2,15,16.1,15
2018/3/9 5:59,8.5,15,8.6,15,18.9,15
2018/3/9 6:00,8.6,15,8.8,15,14.7,15
2018/3/9 6:01,8.8,15,8.8,15,13,14
2018/3/9 6:02,8.5,15,8.8,15,11.7,16
2018/3/9 6:03,8.6,15,8.7,15,14.9,15
2018/3/9 6:04,8.5,15,8.8,15,19.9,16
2018/3/9 6:05,8.2,15,8.5,15,14.5,15
2018/3/9 6:06,7.9,15,8.1,15,14.5,14
2018/3/9 6:07,8.1,15,8.1,15,14.9,16
2018/3/9 6:08,8.3,15,8.3,15,15.7,16
2018/3/9 6:09,8.5,15,8.5,15,15.9,15
2018/3/9 6:10,8.4,15,8.5,15,18.4,16
2018/3/9 6:11,8,15,8.4,15,11.4,14
2018/3/9 6:12,8.6,15,8.6,15,16,16
2018/3/9 6:13,9.1,15,9.1,15,23.2,15
2018/3/9 6:14,9.1,15,9.1,15,23.2,15
2018/3/9 6:15,9,15,9.1,15,12.3,14
2018/3/9 6:16,9.1,15,9.3,15,16.3,15
2018/3/9 6:17,9.2,15,9.2,15,14.2,16
2018/3/9 6:18,8.8,15,9.2,15,10.1,16
2018/3/9 6:19,8.6,15,8.9,15,14.5,15
2018/3/9 6:20,8.3,15,8.6,15,13.4,14
2018/3/9 6:21,8.4,16,8.4,15,13,14
2018/3/9 6:22,8.2,16,8.4,15,13.1,14
2018/3/9 6:23,7.4,16,8.1,15,8.4,16
2018/3/9 6:24,6.9,16,7.4,15,10,1
2018/3/9 6:25,6.5,16,6.9,15,8.2,14
2018/3/9 6:26,6.2,16,6.4,15,10.3,1
2018/3/9 6:27,5.9,16,6.2,15,12.2,15
2018/3/9 6:28,5.9,16,6.1,15,17.5,16
2018/3/9 6:29,5.7,16,5.8,15,13.9,16
2018/3/9 6:30,5.6,16,5.6,15,11.7,15
2018/3/9 6:31,5.8,16,5.8,16,14.9,14
2018/3/9 6:32,5.7,16,5.9,16,14.5,16
2018/3/9 6:33,6.1,15,6.1,16,17,15
2018/3/9 6:34,6.6,15,6.6,16,16,16
2018/3/9 6:35,6.6,15,6.7,15,9.7,16
2018/3/9 6:36,6.5,15,6.7,15,13.1,15
2018/3/9 6:37,6.8,15,6.9,15,15.9,14
2018/3/9 6:38,7.1,15,7.1,15,15,14
2018/3/9 6:39,6.7,15,7.1,15,5.6,1
2018/3/9 6:40,6.6,16,6.8,15,7.5,1
2018/3/9 6:41,6.2,16,6.6,15,7,16
2018/3/9 6:42,5.7,16,6.1,15,8.4,12
2018/3/9 6:43,5.7,16,5.7,15,15.9,16
2018/3/9 6:44,5.6,16,5.8,15,15.6,14
2018/3/9 6:45,5.4,16,5.6,15,8.5,16
2018/3/9 6:46,5.9,16,5.9,15,17.8,14
2018/3/9 6:47,6,16,6,15,15.4,14
2018/3/9 6:48,5.9,16,6.1,15,13.9,15
2018/3/9 6:49,6.1,16,6.1,15,9.1,1
2018/3/9 6:50,6.3,16,6.3,16,12.4,15
2018/3/9 6:51,6.3,16,6.3,16,9.1,15
2018/3/9 6:52,7.2,16,7.2,16,19.9,16
2018/3/9 6:53,7.1,16,7.3,16,16.6,15
2018/3/9 6:54,6.5,16,7.1,16,6.3,16
2018/3/9 6:55,7,16,7,16,13.4,14
2018/3/9 6:56,6.6,16,7,16,11.5,16
2018/3/9 6:57,6.1,16,6.5,16,8.4,15
2018/3/9 6:58,5.7,16,6,16,7.5,15
2018/3/9 6:59,5.8,16,5.9,16,9.8,15
2018/3/9 7:00,5.6,16,5.8,16,10.2,16
2018/3/9 7:01,5.9,16,5.9,16,16.3,15
2018/3/9 7:02,5,16,5.8,16,8.7,14
2018/3/9 7:03,4.7,16,5.1,16,11.3,14
2018/3/9 7:04,4.9,16,4.9,16,13.3,15
2018/3/9 7:05,4.7,15,4.9,15,11.6,14
2018/3/9 7:06,4.7,16,4.7,15,10.9,16
2018/3/9 7:07,4.7,15,4.7,16,8.5,16
2018/3/9 7:08,4.8,15,4.8,16,12.4,14
2018/3/9 7:09,4.9,15,4.9,16,13.5,15
2018/3/9 7:10,5.1,15,5.1,16,15.7,15
2018/3/9 7:11,4.8,15,5,16,9.3,16
2018/3/9 7:12,4.9,15,4.9,16,9.1,15
2018/3/9 7:13,5.1,15,5.1,15,15.2,16
2018/3/9 7:14,5.2,15,5.3,15,9.9,16
2018/3/9 7:15,5.3,15,5.3,15,9.8,14
2018/3/9 7:16,5.3,15,5.3,15,11.3,15
2018/3/9 7:17,5.4,15,5.4,15,12.3,14
2018/3/9 7:18,5.6,15,5.7,15,10.5,15
2018/3/9 7:19,5.2,15,5.6,15,4.5,14
2018/3/9 7:20,4.6,15,5.1,15,2.5,14
2018/3/9 7:21,4.5,15,4.7,15,5.6,14
2018/3/9 7:22,4.4,15,4.5,15,5.8,1
2018/3/9 7:23,4.4,15,4.6,15,13.1,15
2018/3/9 7:24,4.3,16,4.4,15,7.1,1
2018/3/9 7:25,4.3,16,4.3,15,11.5,15
2018/3/9 7:26,4.2,16,4.5,15,12.5,14
2018/3/9 7:27,4,16,4.2,15,9.7,1
2018/3/9 7:28,4,16,4.1,15,13.3,15
2018/3/9 7:29,4.4,16,4.4,15,13.3,15
2018/3/9 7:30,5,16,5,16,12.5,15
2018/3/9 7:31,5.1,15,5.1,16,6.7,14
2018/3/9 7:32,5.2,16,5.2,16,11,15
2018/3/9 7:33,5.2,15,5.2,16,14.7,16
2018/3/9 7:34,5.7,15,5.7,15,19,15
2018/3/9 7:35,5.8,15,5.9,15,11.5,15
2018/3/9 7:36,6.1,15,6.1,15,13,15
2018/3/9 7:37,6.5,16,6.5,15,16.2,15
2018/3/9 7:38,6.5,16,6.7,16,12.4,16
2018/3/9 7:39,6.6,16,6.6,16,13.8,1
2018/3/9 7:40,6.4,16,6.6,16,13,16
2018/3/9 7:41,6.6,16,6.6,16,11.4,15
2018/3/9 7:42,6.8,16,6.8,16,14.3,1
2018/3/9 7:43,7.1,16,7.1,16,17.9,16
2018/3/9 7:44,6.7,16,7.1,16,13.4,16
2018/3/9 7:45,6.9,16,6.9,16,19.3,15
2018/3/9 7:46,6.9,16,7.1,16,18.7,14
2018/3/9 7:47,6.7,16,7,16,11.8,15
2018/3/9 7:48,6.8,15,6.9,16,13.6,15
2018/3/9 7:49,6.7,15,6.9,16,12.6,15
2018/3/9 7:50,7.4,15,7.4,15,17.9,14
2018/3/9 7:51,7.6,15,7.6,15,21.8,16
2018/3/9 7:52,7.7,15,7.9,15,14,16
2018/3/9 7:53,7.5,15,7.6,15,16,1
2018/3/9 7:54,7.9,15,7.9,15,20.9,16
2018/3/9 7:55,8,15,8,15,17.5,15
2018/3/9 7:56,8.1,15,8.1,15,16.3,14
2018/3/9 7:57,8.4,15,8.4,15,18.3,14
2018/3/9 7:58,8.7,15,8.7,15,24.3,15
2018/3/9 7:59,8.8,15,8.9,15,13.3,16
2018/3/9 8:00,8.8,15,9,15,19.3,15
2018/3/9 8:01,8.7,15,8.7,15,13.5,16
2018/3/9 8:02,8.7,15,8.8,15,13.9,1
2018/3/9 8:03,8.5,15,8.7,15,15.7,1
2018/3/9 8:04,8.6,15,8.7,15,20.3,16
2018/3/9 8:05,8.5,15,8.6,15,14.8,1
2018/3/9 8:06,8.8,15,8.8,15,22.2,15
2018/3/9 8:07,8.7,15,8.8,15,18.4,15
2018/3/9 8:08,8.9,15,8.9,15,19.2,15
2018/3/9 8:09,8.9,15,8.9,15,15.2,16
2018/3/9 8:10,8.9,15,8.9,15,19.5,15
2018/3/9 8:11,9.2,15,9.2,15,22.6,14
2018/3/9 8:12,9.5,15,9.5,15,17.7,15
2018/3/9 8:13,10,15,10,15,18.7,16
2018/3/9 8:14,10.1,15,10.1,15,17,15
2018/3/9 8:15,10.1,15,10.2,15,15.3,1
2018/3/9 8:16,9.3,15,10.1,15,11.3,14
2018/3/9 8:17,9.2,15,9.3,15,15.3,16
2018/3/9 8:18,8.8,15,9.2,15,14.7,16
2018/3/9 8:19,8.8,16,8.9,15,11.9,1
2018/3/9 8:20,8.5,16,8.7,15,13.9,14
2018/3/9 8:21,7.8,16,8.5,15,10,15
2018/3/9 8:22,7.7,16,7.7,15,16.5,14
2018/3/9 8:23,7.7,16,7.7,15,18.5,15
2018/3/9 8:24,7.4,16,7.6,15,15.9,15
2018/3/9 8:25,7.1,16,7.3,15,10.5,15
2018/3/9 8:26,7.4,16,7.4,15,12.2,15
2018/3/9 8:27,7.3,16,7.4,15,16,1
2018/3/9 8:28,7.7,16,7.7,15,20.9,16
2018/3/9 8:29,7.8,15,7.8,16,14.4,15
2018/3/9 8:30,7.9,15,8,16,11.3,1
2018/3/9 8:31,7.8,15,7.8,15,8.4,1
2018/3/9 8:32,7.6,16,7.9,15,15.2,15
2018/3/9 8:33,7.1,15,7.6,15,10.8,15
2018/3/9 8:34,6.8,16,7.1,15,12.7,16
2018/3/9 8:35,7.1,16,7.1,15,14.4,16
2018/3/9 8:36,7.3,16,7.4,15,17.6,15
2018/3/9 8:37,7.1,16,7.3,15,13,15
2018/3/9 8:38,6.7,16,7,15,13.2,16
2018/3/9 8:39,6.7,16,6.7,15,15.2,14
2018/3/9 8:40,6.9,16,6.9,15,16.2,15
2018/3/9 8:41,7.4,15,7.4,15,15.8,15
2018/3/9 8:42,7.4,15,7.5,15,12.7,13
2018/3/9 8:43,7.5,15,7.5,15,17.4,15
2018/3/9 8:44,7.8,15,7.8,15,18,16
2018/3/9 8:45,8.2,15,8.2,15,17.7,15
2018/3/9 8:46,8.3,15,8.3,15,19.4,15
2018/3/9 8:47,8.4,15,8.4,15,12.1,16
2018/3/9 8:48,8.5,15,8.6,15,19.5,15
2018/3/9 8:49,8.3,15,8.4,15,22.3,15
2018/3/9 8:50,8.2,15,8.6,15,27.2,14
2018/3/9 8:51,8.1,15,8.2,15,14.9,16
2018/3/9 8:52,8.3,15,8.3,15,14.5,16
2018/3/9 8:53,8.3,15,8.3,15,18.8,15
2018/3/9 8:54,8.5,15,8.6,15,15.7,16
2018/3/9 8:55,8.2,16,8.5,15,16.7,15
2018/3/9 8:56,8.4,16,8.5,15,19.4,16
2018/3/9 8:57,8.2,16,8.4,15,11.6,16
2018/3/9 8:58,8.1,15,8.1,15,15.8,15
2018/3/9 8:59,8.5,15,8.7,15,16.7,16
2018/3/9 9:00,8.6,15,8.6,15,16.9,15
2018/3/9 9:01,8.8,15,8.8,15,18.7,15
2018/3/9 9:02,9,15,9,15,17.5,1
2018/3/9 9:03,9.1,15,9.1,15,22.1,14
2018/3/9 9:04,9.5,15,9.5,15,22.3,15
2018/3/9 9:05,9.6,15,9.6,15,14.7,15
2018/3/9 9:06,9.2,15,9.6,15,18.9,15
2018/3/9 9:07,9.8,15,9.8,15,18.6,1
2018/3/9 9:08,10.1,15,10.2,15,14.3,16
2018/3/9 9:09,9.9,15,10.2,15,17,16
2018/3/9 9:10,9.5,15,9.8,15,12.1,16
2018/3/9 9:11,9.3,15,9.6,15,14.2,15
2018/3/9 9:12,9.2,15,9.3,15,20.3,16
2018/3/9 9:13,9.2,15,9.4,15,17.4,16
2018/3/9 9:14,8.8,15,9.2,15,20.9,15
2018/3/9 9:15,8.5,15,8.8,15,11.5,16
2018/3/9 9:16,8.1,15,8.4,15,12.3,15
2018/3/9 9:17,7.7,15,8,15,13.9,14
2018/3/9 9:18,7.6,15,7.8,15,13.8,15
2018/3/9 9:19,7.4,15,7.6,15,11.1,16
2018/3/9 9:20,7.5,15,7.5,15,11.7,16
2018/3/9 9:21,7.7,15,7.7,15,16.6,16
2018/3/9 9:22,8,15,8,15,20.6,15
2018/3/9 9:23,8,15,8,15,19.5,15
2018/3/9 9:24,8.4,15,8.4,15,22.4,15
2018/3/9 9:25,8.8,15,8.8,15,19.5,15
2018/3/9 9:26,9.2,15,9.2,15,16,15
2018/3/9 9:27,9.2,15,9.3,15,12.3,16
2018/3/9 9:28,9.2,15,9.2,15,13.3,16
2018/3/9 9:29,9.1,15,9.2,15,12.6,14
2018/3/9 9:30,9.1,15,9.1,15,9.8,14
2018/3/9 9:31,8.7,15,9,15,13.8,16
2018/3/9 9:32,8.8,15,8.9,15,20.3,15
2018/3/9 9:33,9.1,15,9.2,15,21.4,16
2018/3/9 9:34,8.8,15,9,15,18.3,15
2018/3/9 9:35,8.6,15,8.8,15,14.3,15
2018/3/9 9:36,8.6,15,8.7,15,16.3,14
2018/3/9 9:37,8.8,15,8.8,15,15.1,15
2018/3/9 9:38,8.7,15,8.8,15,13.9,15
2018/3/9 9:39,9.1,15,9.1,15,15.4,15
2018/3/9 9:40,9.4,15,9.4,15,22,15
2018/3/9 9:41,9.9,15,9.9,15,20.5,15
2018/3/9 9:42,9.7,15,9.9,15,18.9,15
2018/3/9 9:43,9.5,15,9.6,15,18.7,15
2018/3/9 9:44,9.4,15,9.6,15,21.1,16
2018/3/9 9:45,9.1,15,9.4,15,11.6,16
2018/3/9 9:46,8.6,15,9,15,11.4,15
2018/3/9 9:47,8.6,15,8.7,15,16.7,15
2018/3/9 9:48,8.8,15,8.9,15,17.5,15
2018/3/9 9:49,8.7,15,8.8,15,17.2,14
2018/3/9 9:50,8.9,15,9,15,19.4,15
2018/3/9 9:51,9.4,15,9.4,15,24.8,15
2018/3/9 9:52,9.3,15,9.5,15,24.8,15
2018/3/9 9:53,9.3,15,9.3,15,18.8,16
2018/3/9 9:54,9.1,15,9.2,15,14.9,15
2018/3/9 9:55,9.3,15,9.3,15,16.3,16
2018/3/9 9:56,9.8,15,9.9,15,16.3,14
2018/3/9 9:57,9.5,15,9.8,15,13,15
2018/3/9 9:58,9.1,15,9.5,15,7.9,15
2018/3/9 9:59,8.8,15,9.1,15,10.2,2
2018/3/9 10:00,8.4,15,8.8,15,12.2,14
2018/3/9 10:01,8,15,8.4,15,17.6,16
2018/3/9 10:02,7.7,15,7.9,15,14.7,15
2018/3/9 10:03,7.9,15,8,15,17.5,15
2018/3/9 10:04,7.7,15,8,15,16.6,15
2018/3/9 10:05,7.8,15,7.8,15,14.3,15
2018/3/9 10:06,7.6,15,7.7,15,16.3,15
2018/3/9 10:07,8.1,15,8.1,15,18.1,15
2018/3/9 10:08,8.8,15,8.8,15,22.6,15
2018/3/9 10:09,9.2,15,9.2,15,19.3,15
2018/3/9 10:10,9.4,15,9.4,15,17.5,15
2018/3/9 10:11,8.8,15,9.4,15,10.8,15
2018/3/9 10:12,9.3,15,9.3,15,21.6,15
2018/3/9 10:13,9,15,9.3,15,16.2,16
2018/3/9 10:14,9,15,9,15,13.4,14
2018/3/9 10:15,9.2,15,9.2,15,17.9,15
2018/3/9 10:16,9.5,15,9.5,15,15.3,1
2018/3/9 10:17,9.3,16,9.5,15,15.4,15
2018/3/9 10:18,8.9,16,9.3,15,12.8,15
2018/3/9 10:19,8.4,16,8.8,15,17.8,15
2018/3/9 10:20,8,16,8.4,15,8.9,16
2018/3/9 10:21,8.2,16,8.2,15,11.9,15
2018/3/9 10:22,7.9,16,8.1,15,17.2,15
2018/3/9 10:23,8,16,8.1,15,18.6,16
2018/3/9 10:24,7.9,16,7.9,15,10.6,1
2018/3/9 10:25,7.6,16,7.9,15,13.1,14
2018/3/9 10:26,7.4,15,7.6,16,12.4,15
2018/3/9 10:27,7,15,7.4,16,15.2,16
2018/3/9 10:28,7,15,7.1,16,14.4,15
2018/3/9 10:29,7.2,15,7.2,16,13,14
2018/3/9 10:30,7.4,15,7.4,16,12.3,16
2018/3/9 10:31,7.3,15,7.4,16,14.3,16
2018/3/9 10:32,7.2,16,7.5,16,18.4,16
2018/3/9 10:33,6.7,16,7.2,16,9.2,16
2018/3/9 10:34,7.1,16,7.1,16,20.1,1
2018/3/9 10:35,7.3,16,7.3,16,15.9,14
2018/3/9 10:36,7.4,16,7.4,16,11.3,15
2018/3/9 10:37,7.4,16,7.6,16,12.5,15
2018/3/9 10:38,7,16,7.4,16,7.6,14
2018/3/9 10:39,7.2,16,7.2,16,17.5,14
2018/3/9 10:40,7.5,16,7.5,16,15.4,16
2018/3/9 10:41,7.8,15,7.8,15,17.7,16
2018/3/9 10:42,7.9,15,7.9,15,18.5,1
2018/3/9 10:43,8.2,15,8.2,15,11.5,15
2018/3/9 10:44,8.3,15,8.3,15,22.8,15
2018/3/9 10:45,8.5,15,8.6,15,21.6,14
2018/3/9 10:46,8.1,15,8.5,15,14.3,15
2018/3/9 10:47,8.2,15,8.2,15,14.9,1
2018/3/9 10:48,8.6,15,8.6,15,11.8,15
2018/3/9 10:49,8.3,15,8.5,15,12.7,15
2018/3/9 10:50,7.8,15,8.2,15,8.9,16
2018/3/9 10:51,7.8,15,7.9,15,17.9,16
2018/3/9 10:52,7.5,15,7.7,15,11.6,15
2018/3/9 10:53,7.3,15,7.5,15,8.7,15
2018/3/9 10:54,7.2,15,7.4,15,15.8,16
2018/3/9 10:55,7,15,7.1,15,15.4,16
2018/3/9 10:56,7.5,15,7.6,15,15.4,15
2018/3/9 10:57,7.5,15,7.5,15,19.4,15
2018/3/9 10:58,7.8,15,7.8,15,17.2,16
2018/3/9 10:59,7.8,15,7.8,15,13.6,1